Orbital Elements at Epoch 2459000.5 (2020-May-31.0) TDB
Reference: JPL 12 (heliocentric ecliptic J2000)
Element | Value | Uncertainty (1-sigma) | Units |
e | .1046325946613083 | 7.2296e-08 | |
a | 2.267009424800079 | 1.9698e-08 | au |
q | 2.029806346561607 | 1.6879e-07 | au |
i | 2.279006954050149 | 7.7083e-06 | deg |
node | 52.41999929587701 | 0.00018765 | deg |
peri | 336.6016506983713 | 0.00019104 | deg |
M | 222.4765531955572 | 3.9071e-05 | deg |
tp | 2459476.769382479321 (2021-Sep-19.26938248) | 0.00013769 | TDB |
period | 1246.747239664272 3.41 | 1.625e-05 4.449e-08 | d yr |
n | .288751391257896 | 3.7634e-09 | deg/d |
Q | 2.504212503038552 | 2.1759e-08 | au |
|
| | Orbit Determination Parameters
Additional Information
|